Flag for Saudi Arabia Weather past 2 weeks in Medina, Saudi Arabia

Now
81 °F

Scattered clouds.


Feels Like: 80 °F
Forecast: 61 / 75 °F
Wind: 7 mph from West

Location: Madinah

Current Time: Dec 21, 2014 at 4:31:08 PM

Latest Report: Dec 21, 2014 at 4:00 PM


Visibility: N/A

Pressure: 29.98 "Hg

Humidity: 32%

Dew point: 48 °F

Location of MedinaLocation

Historic Weather in Medina — Graph

°F

Medina temperature yesterday

Maximum temperature yesterday: 84 °F (at 3:00 PM)
Minimum temperature yesterday: 63 °F (at 6:00 AM)
Average temperature yesterday: 73 °F

Past Weeks' High & Low Weather Summary

 TemperatureHumidityPressure
High90 °F (Dec 11, 3:00 PM)69% (Dec 19, 11:00 AM)30.36 "Hg (Dec 19, 11:00 AM)
Low55 °F (Dec 17, 7:00 AM)11% (Dec 6, 4:00 PM)29.98 "Hg (Dec 9, 2:00 PM)
Average73 °F34%30.11 "Hg
* Reported Dec 6 3:00 PM — Dec 21 3:00 PM, Medina, Weather by CustomWeather, © 2014

Note: Actual official high and low records may vary slightly from our data, if they occured in-between our weather recording intervals... More about our weather records

Advertising

Medina weather history for previous 24 hours

 ConditionsComfort  
Time TempWeatherWind HumidityBarometerVisibility
3:00 PM
Dec 21
81 °FPassing clouds.13 mph34%30.01 "Hg6 mi
2:00 PM79 °FPassing clouds.8 mph37%30.01 "Hg5 mi
1:00 PM77 °FPassing clouds.10 mph42%30.04 "Hg5 mi
12:00 PM77 °FPassing clouds.8 mph42%30.07 "Hg5 mi
11:00 AM75 °FPassing clouds.7 mph44%30.09 "Hg5 mi
10:00 AM73 °FScattered clouds.8 mph50%30.09 "Hg4 mi
9:00 AM72 °FPassing clouds.5 mph57%30.07 "Hg4 mi
8:00 AM70 °FPassing clouds.No wind69%30.07 "Hg4 mi
7:00 AM70 °FScattered clouds.No wind64%30.04 "Hg4 mi
6:00 AM70 °FClear.No wind69%30.04 "Hg10 mi
5:00 AM72 °FClear.6 mph65%30.04 "Hg10 mi
4:00 AM72 °FClear.5 mph65%30.04 "Hg10 mi
3:00 AM73 °FClear.9 mph57%30.04 "Hg10 mi
2:00 AM73 °FClear.9 mph57%30.04 "Hg10 mi
1:00 AM73 °FClear.9 mph57%30.07 "Hg10 mi
12:00 AM75 °FClear.12 mph50%30.07 "Hg10 mi
11:00 PM
Dec 20
75 °FClear.9 mph50%30.09 "Hg10 mi
10:00 PM77 °FClear.12 mph44%30.07 "Hg10 mi
9:00 PM77 °FClear.15 mph42%30.07 "Hg10 mi
8:00 PM79 °FClear.13 mph39%30.07 "Hg10 mi
7:00 PM79 °FClear.16 mph37%30.07 "Hg6 mi
6:00 PM81 °FPassing clouds.16 mph34%30.04 "Hg6 mi
5:00 PM82 °FPassing clouds.16 mph35%30.04 "Hg6 mi
4:00 PM84 °FPassing clouds.17 mph31%30.01 "Hg5 mi
Weather by CustomWeather, © 2014

See weather overviewHow to use our weather pages